Tracking 19564 objects as of 19-Mar-2019
HD Live streaming from Space Station
objects crossing your sky now

SL-16 R/B

Track SL-16 R/B now!
10-day predictions
SL-16 R/B is classified as:


NORAD ID: 24298
Int'l Code: 1996-051B
Perigee: 845.6 km
Apogee: 871.1 km
Inclination: 70.8 °
Period: 102.0 minutes
Semi major axis: 7229 km
RCS: 8.785 m2 (large)
Launch date: September 4, 1996
Source: Commonwealth of Independent States (former USSR) (CIS)
Launch site: TYURATAM MISSILE AND SPACE COMPLEX (TTMTR)

Note: This is a ROCKET BODY
aabbcc
Your satellite tracking list
Your tracking list is empty




NASA's NSSDC Master Catalog

Two Line Element Set (TLE):
1 24298U 96051B   19077.44364610 -.00000030  00000-0  10017-4 0  9995
2 24298  70.8253 154.2782 0017659 302.1505  57.7901 14.12391581162086
Source of the keplerian elements: AFSPC